sat.trackr.live / text

‹ back to catalog

STARLINK-6295

NORAD 56554 · 2023-065BD

PAYLOAD ACTIVE UNKNOWN

§ Identity

Operator
Country
US
Launch date
2023-05-14
Launch site
AFETR
Launch vehicle
Mass (kg)
RCS (m²)

Purposes: comms

External: N2YO · Heavens-Above · Gunter

§ Orbital elements

Epoch: 2026-09-20T05:47:09.750912Z

Period
94.27 min
Inclination
43.0035°
Eccentricity
0.0001692
Mean motion
15.27578658 rev/d
Perigee alt
481.9 km
Apogee alt
484.2 km
Semi-major
6,861.2 km
B*
2.4870e-5
RAAN
205.0841°
Arg perigee
258.9683°
Mean anomaly
101.0978°
Rev number
18,622

§ Raw data

STARLINK-62951 56554U 23065BD  26263.24108508  .00000422  00000+0  24870-4 0  99902 56554  43.0035 205.0841 0001692 258.9683 101.0978 15.27578658186220

JSON: /api/v1/satellites/56554 · /tle

For live sub-satellite position, see the globe view (requires WebGL).

§ Visibility from observer

Set your observer location to see the next 7 days of passes ≥ 10°. The values pass through the URL so the page stays shareable.

No JS? Fill the form by hand. The geolocation button needs JavaScript.